GPS BIIR-5 (PRN 22) 1 26407U 00040A 26255.10669080 -.00000006 00000+0 00000+0 0 9998 2 26407 54.8394 211.7123 0118339 303.7653 98.8084 2.00558320191691 GPS BIIR-8 (PRN 16) 1 27663U 03005A 26254.60300986 -.00000010 00000+0 00000+0 0 9993 2 27663 54.8693 211.5378 0150225 53.5986 121.3720 2.00555870173042 GPS BIIR-11 (PRN 19) 1 28190U 04009A 26253.89719514 -.00000011 00000+0 00000+0 0 9996 2 28190 54.7639 272.2167 0117973 176.3888 2.1213 2.00573795164662 GPS BIIR-13 (PRN 02) 1 28474U 04045A 26254.14304954 -.00000079 00000+0 00000+0 0 9992 2 28474 55.0798 321.4298 0172011 318.4975 101.9612 2.00559594160151 GPS BIIRM-1 (PRN 17) 1 28874U 05038A 26254.68789001 -.00000015 00000+0 00000+0 0 9998 2 28874 54.8134 269.6790 0128756 297.4628 121.8822 2.00559724153571 GPS BIIRM-2 (PRN 31) 1 29486U 06042A 26254.49975404 .00000013 00000+0 00000+0 0 9994 2 29486 54.7152 147.9105 0108783 57.0520 126.5252 2.00565341146121 GPS BIIRM-3 (PRN 12) 1 29601U 06052A 26255.17223389 -.00000005 00000+0 00000+0 0 9990 2 29601 54.9240 210.5606 0085404 91.1350 269.8072 2.00562877145151 GPS BIIRM-4 (PRN 15) 1 32260U 07047A 26254.98184191 -.00000014 00000+0 00000+0 0 9995 2 32260 54.1635 76.4901 0169011 89.4051 272.5828 2.00551515138551 GPS BIIRM-5 (PRN 29) 1 32384U 07062A 26255.30859454 -.00000018 00000+0 00000+0 0 9991 2 32384 54.9678 270.6430 0036015 170.0830 195.9120 2.00564843137265 GPS BIIRM-6 (PRN 07) 1 32711U 08012A 26254.88997438 .00000014 00000+0 00000+0 0 9993 2 32711 54.5035 146.4598 0211407 248.5370 109.2661 2.00552428135494 GPS BIIRM-8 (PRN 05) 1 35752U 09043A 26254.39455610 -.00000096 00000+0 00000+0 0 9994 2 35752 56.2613 24.0728 0051599 86.0301 286.2006 2.00577039125091 GPS BIIF-1 (PRN 25) 1 36585U 10022A 26254.00000000 -.00000016 00000+0 00000+0 0 9997 2 36585 54.2612 205.1080 0128905 66.3945 140.7715 2.00566725119316 GPS BIIF-3 (PRN 24) 1 38833U 12053A 26254.07115221 .00000014 00000+0 00000+0 0 9997 2 38833 53.5962 140.0783 0185451 67.3330 294.6954 2.00556923101166 GPS BIIF-4 (PRN 27) 1 39166U 13023A 26253.93870360 -.00000008 00000+0 00000+0 0 9995 2 39166 54.4436 265.4738 0142242 51.1420 310.1467 2.00563471097608 GPS BIIF-5 (PRN 30) 1 39533U 14008A 26254.93755993 .00000013 00000+0 00000+0 0 9997 2 39533 53.6623 145.7793 0083589 231.5683 127.7499 2.00565427091423 GPS BIIF-6 (PRN 06) 1 39741U 14026A 26255.21641731 -.00000090 00000+0 00000+0 0 9990 2 39741 56.4493 328.1268 0039293 324.1701 35.6287 2.00554703090287 GPS BIIF-7 (PRN 09) 1 40105U 14045A 26254.80750477 .00000003 00000+0 00000+0 0 9992 2 40105 55.4149 85.0144 0036346 119.8600 240.5660 2.00564033087819 GPS BIIF-8 (PRN 03) 1 40294U 14068A 26254.67830742 -.00000091 00000+0 00000+0 0 9993 2 40294 57.0446 27.6301 0067069 73.7719 286.9591 2.00556705086945 GPS BIIF-9 (PRN 26) 1 40534U 15013A 26254.31523678 -.00000015 00000+0 00000+0 0 9995 2 40534 53.1580 200.6179 0112771 41.0484 319.7596 2.00570877083552 GPS BIIF-10 (PRN 08) 1 40730U 15033A 26253.98036862 -.00000009 00000+0 00000+0 0 9994 2 40730 53.9223 263.5429 0117089 30.5092 330.1897 2.00551728081714 GPS BIIF-11 (PRN 10) 1 41019U 15062A 26255.02923263 -.00000092 00000+0 00000+0 0 9996 2 41019 57.0156 27.4729 0115821 231.0497 127.9112 2.00566941079570 GPS BIIF-12 (PRN 32) 1 41328U 16007A 26254.61951825 .00000007 00000+0 00000+0 0 9993 2 41328 55.5828 86.0329 0097493 247.2191 111.8125 2.00572750077572 GPS BIII-1 (PRN 04) 1 43873U 18109A 26255.00819124 .00000007 00000+0 00000+0 0 9994 2 43873 55.7397 88.7611 0039989 196.1580 336.6894 2.00565073056819 GPS BIII-2 (PRN 18) 1 44506U 19056A 26253.40900905 -.00000085 00000+0 00000+0 0 9997 2 44506 55.5893 327.7525 0065766 199.8938 163.8410 2.00571097051789 GPS BIII-3 (PRN 23) 1 45854U 20041A 26255.20450088 -.00000095 00000+0 00000+0 0 9993 2 45854 56.7252 25.5740 0067432 205.4040 308.9873 2.00566080045784 GPS BIII-4 (PRN 14) 1 46826U 20078A 26254.51705881 -.00000012 00000+0 00000+0 0 9999 2 46826 53.9683 207.2798 0076066 208.4421 149.1755 2.00565053043233 GPS BIII-5 (PRN 11) 1 48859U 21054A 26254.26028934 -.00000090 00000+0 00000+0 0 9997 2 48859 55.1268 328.9967 0028440 230.5018 127.7457 2.00563701038473 GPS BIII-6 (PRN 28) 1 55268U 23009A 26254.45877955 .00000015 00000+0 00000+0 0 9993 2 55268 55.1273 145.1261 0005541 333.0185 207.9019 2.00565475026975 GPS BIII-7 (PRN 01) 1 62339U 24242A 26252.19379153 -.00000088 00000+0 00000+0 0 9997 2 62339 54.8068 330.7730 0019176 1.5951 67.0727 2.00573456012941 GPS BIII-8 (PRN 21) 1 64202U 25116A 26254.58352148 -.00000093 00000+0 00000+0 0 9995 2 64202 55.2912 27.6605 0008964 334.7276 202.3499 2.00569574009607 GPS BIII-9 (PRN 20) 1 67588U 26017A 26254.94736220 .00000002 00000+0 00000+0 0 9992 2 67588 55.1491 85.2737 0020741 263.1983 96.6286 2.00568964433354 GPS BIII-10 (PRN 13) 1 68791U 26087A 26254.39889477 -.00000012 00000+0 00000+0 0 9990 2 68791 54.9553 204.3810 0021324 102.9910 67.7109 2.00577427002563